Temperature
8 8 9 9 10 10 10 11 11 11 11 11 11 10 10 9 9 9 9 9 9 9 9 9 8 7 6 6 5 5 5 4 4 3 2 2 1 0 0 -0 -0 -1 -1
7 7 8 8 8 9 9 10 10 10 10 10 10 9 9 8 8 8 9 9 8 8 8 7 6 5 4 4 4 4 3 3 3 2 1 1 0 -0 -1 -1 -1 -1 -1
6 7 7 7 8 8 8 8 9 9 9 9 9 8 8 8 8 8 8 8 7 7 6 5 4 3 3 3 3 2 2 2 1 1 0 -1 -1 -1 -2 -2 -2 -2 -2
6 6 6 7 7 7 7 7 8 8 8 7 7 7 7 7 7 7 6 6 5 4 3 2 2 2 2 2 2 1 1 1 -0 -1 -2 -2 -3 -3 -3 -4 -4 -4 -4
5 5 6 6 6 6 6 6 6 6 6 6 6 6 5 5 5 5 4 4 3 2 1 1 1 1 1 1 1 0 -0 -1 -2 -3 -3 -4 -4 -5 -5 -6 -6 -6 -5
4 4 4 4 4 4 4 4 4 4 4 4 4 3 3 3 2 2 2 1 1 1 1 1 1 1 0 -0 -0 -1 -1 -2 -3 -4 -4 -5 -6 -6 -7 -7 -7 -7 -7
3 3 3 2 2 2 2 2 3 2 2 2 1 1 1 0 0 -0 -0 0 0 0 0 0 -0 -1 -1 -1 -2 -2 -2 -3 -4 -5 -6 -6 -6 -7 -7 -7 -8 -8 -8
2 1 1 1 1 1 1 1 1 1 0 0 -0 -0 -1 -1 -1 -0 -0 -0 -0 -0 -1 -1 -2 -2 -2 -2 -2 -3 -3 -4 -5 -6 -6 -7 -7 -7 -8 -8 -8 -8 -8
1 1 0 0 0 0 -0 -0 -0 -0 -1 -1 -1 -1 -1 -1 -1 -1 -1 -1 -1 -1 -2 -2 -2 -3 -3 -3 -4 -4 -5 -6 -6 -6 -6 -7 -7 -7 -8 -8 -8 -8 -8
0 0 0 0 0 -0 -1 -1 -1 -1 -1 -1 -1 -1 -1 -1 -2 -2 -2 -2 -2 -2 -3 -3 -3 -4 -4 -5 -6 -6 -6 -6 -7 -6 -7 -7 -7 -7 -7 -8 -8 -8 -8
0 0 0 -0 -0 -0 -1 -1 -1 -1 -1 -1 -1 -2 -2 -2 -2 -3 -3 -3 -3 -3 -4 -4 -4 -5 -5 -6 -7 -7 -7 -7 -7 -7 -7 -7 -7 -7 -7 -7 -8 -8 -8
0 0 0 -0 -0 -0 -0 -1 -1 -1 -1 -1 -2 -2 -2 -3 -3 -3 -3 -4 -4 -4 -5 -5 -6 -6 -7 -7 -7 -7 -7 -7 -8 -7 -7 -7 -7 -7 -7 -7 -7 -7 -7
0 0 0 -0 -0 -1 -1 -1 -1 -1 -2 -2 -2 -3 -3 -3 -4 -4 -5 -5 -5 -6 -6 -7 -7 -7 -7 -7 -7 -7 -7 -8 -8 -8 -7 -7 -7 -7 -7 -7 -7 -7 -7
0 0 -0 -0 -0 -1 -1 -1 -1 -2 -2 -2 -3 -3 -4 -4 -5 -5 -6 -6 -7 -7 -7 -7 -7 -7 -8 -8 -8 -8 -8 -8 -8 -8 -8 -8 -7 -7 -7 -7 -7 -7 -6
0 0 -0 -0 -1 -1 -1 -2 -2 -2 -3 -3 -4 -4 -5 -6 -6 -6 -7 -8 -8 -8 -8 -8 -8 -8 -8 -8 -8 -8 -8 -8 -8 -8 -8 -8 -8 -7 -7 -7 -7 -7 -7
0 0 -0 -1 -1 -1 -2 -2 -2 -3 -3 -4 -4 -5 -6 -6 -7 -7 -8 -8 -8 -8 -8 -8 -8 -9 -8 -8 -8 -8 -8 -8 -8 -8 -8 -8 -8 -8 -7 -7 -7 -7 -7
-0 -0 -1 -1 -1 -2 -2 -3 -3 -3 -4 -5 -5 -6 -6 -7 -7 -7 -8 -8 -8 -8 -8 -9 -8 -8 -8 -8 -8 -8 -8 -8 -8 -8 -8 -8 -8 -8 -8 -8 -8 -8 -7
-0 -1 -1 -1 -2 -2 -3 -3 -4 -4 -5 -5 -6 -6 -7 -7 -8 -8 -8 -8 -8 -9 -9 -9 -9 -9 -9 -8 -8 -8 -8 -8 -8 -8 -8 -8 -8 -8 -8 -8 -8 -8 -8
-0 -1 -1 -1 -2 -2 -3 -3 -4 -4 -5 -6 -6 -7 -7 -8 -8 -8 -8 -9 -9 -9 -9 -9 -9 -9 -9 -9 -8 -8 -8 -8 -8 -8 -8 -8 -8 -8 -8 -8 -8 -8 -8
-1 -1 -1 -2 -2 -3 -3 -4 -4 -5 -6 -6 -7 -7 -8 -8 -8 -8 -9 -9 -9 -9 -9 -9 -9 -9 -9 -8 -8 -8 -8 -8 -8 -8 -8 -8 -8 -8 -8 -8 -8 -8 -8
-1 -1 -2 -2 -2 -3 -3 -4 -5 -5 -6 -6 -7 -7 -8 -8 -8 -9 -9 -9 -9 -9 -9 -9 -8 -8 -8 -8 -8 -8 -8 -8 -8 -8 -8 -8 -9 -8 -8 -8 -8 -8 -8
-1 -1 -2 -2 -3 -3 -4 -4 -5 -5 -6 -7 -7 -8 -8 -8 -9 -9 -9 -9 -9 -9 -9 -8 -8 -8 -8 -8 -8 -8 -8 -8 -8 -9 -9 -9 -9 -8 -8 -8 -8 -8 -8
-1 -2 -2 -2 -3 -3 -4 -4 -5 -6 -6 -7 -7 -8 -8 -8 -9 -9 -9 -9 -9 -9 -9 -8 -8 -8 -8 -8 -8 -8 -8 -8 -8 -9 -9 -9 -9 -8 -8 -8 -8 -8 -8
-2 -2 -2 -3 -3 -3 -4 -4 -5 -6 -6 -7 -7 -8 -8 -8 -8 -9 -9 -8 -8 -8 -8 -8 -8 -8 -8 -8 -8 -8 -8 -8 -9 -9 -9 -9 -8 -8 -8 -8 -8 -8 -8
-2 -2 -2 -3 -3 -4 -4 -5 -5 -6 -7 -7 -7 -8 -8 -8 -8 -8 -8 -8 -8 -8 -8 -8 -8 -8 -8 -8 -8 -8 -8 -8 -9 -9 -9 -9 -9 -9 -9 -8 -8 -8 -8
-2 -2 -3 -3 -3 -4 -4 -5 -6 -6 -7 -7 -7 -8 -8 -8 -8 -8 -8 -8 -8 -8 -8 -8 -8 -8 -8 -8 -8 -8 -8 -8 -9 -9 -9 -9 -9 -8 -8 -8 -8 -8 -8
Wind_Speed
10 10 9 9 9 8 8 8 8 7 7 7 8 9 10 10 11 11 10 11 11 10 10 11 11 10 8 7 6 6 6 4 3 2 2 2 3 6 8 9 11 12 13
10 10 9 9 8 7 6 6 5 4 4 4 5 6 7 9 10 11 11 12 12 13 12 13 12 10 10 8 7 6 5 4 3 3 3 4 6 6 8 9 11 12 14
10 9 9 9 8 7 6 5 4 2 1 1 3 4 6 8 9 9 10 11 11 12 12 13 12 12 10 7 7 6 5 4 2 2 3 4 5 6 8 9 10 11 13
10 10 10 9 9 7 6 6 6 6 6 5 5 5 6 7 9 10 11 12 12 12 11 11 10 10 9 8 6 6 4 4 3 4 5 5 6 7 7 8 9 9 10
10 10 10 9 9 9 9 9 10 10 9 8 9 9 9 8 9 11 12 13 13 13 11 10 9 9 9 7 5 5 5 4 4 4 5 6 7 6 7 7 10 10 11
10 10 9 10 10 10 10 10 11 11 11 11 11 10 10 9 15 16 14 12 12 12 11 9 8 7 7 7 6 6 6 5 5 5 6 7 8 8 7 8 10 11 10
9 9 10 10 10 10 11 11 12 12 12 12 11 11 12 14 18 18 17 12 11 10 9 8 6 5 5 3 2 3 5 6 7 7 9 9 9 8 9 11 11 12 13
9 9 9 9 10 10 11 11 11 10 10 10 11 11 12 14 19 19 18 12 10 9 7 6 6 4 3 2 2 3 4 5 6 7 8 9 9 9 10 11 12 13 14
8 8 8 8 9 10 10 10 9 10 10 10 10 11 12 13 16 16 13 8 8 7 6 4 3 2 1 3 3 4 5 6 6 9 11 13 15 16 14 10 10 10 12
7 7 8 8 9 10 10 9 9 10 10 10 10 10 10 10 12 11 9 5 6 5 4 3 1 1 2 4 4 5 6 7 7 8 9 10 11 12 12 10 9 9 8
6 7 8 8 9 9 9 9 9 9 9 9 9 8 7 8 8 8 6 3 3 3 2 1 0 2 4 5 5 5 7 9 9 8 9 9 8 7 7 8 8 8 10
6 7 7 8 7 7 8 8 8 8 8 7 7 7 5 5 5 6 5 4 3 1 1 1 2 4 5 6 5 7 9 9 7 7 8 8 7 7 7 7 10 12 14
7 7 7 8 7 6 7 7 6 5 5 4 4 4 4 3 4 5 4 4 3 2 2 3 4 4 5 5 5 7 7 6 6 7 7 7 7 8 8 9 10 11 14
7 7 6 7 7 6 5 4 4 4 4 3 3 3 2 2 1 1 1 1 2 2 2 2 3 4 5 6 6 5 4 5 6 7 8 8 8 8 8 8 9 9 9
7 6 6 5 6 6 5 5 4 4 3 2 2 1 0 0 1 3 3 3 4 4 3 3 4 4 4 4 4 4 4 5 6 6 7 8 8 8 8 7 7 8 8
7 6 5 4 4 4 5 5 7 6 6 5 3 1 1 2 3 4 4 5 5 5 4 4 4 4 4 5 5 5 5 5 5 6 7 7 8 8 9 9 8 9 11
7 6 4 4 4 3 3 3 3 4 5 4 3 2 2 3 3 4 5 5 4 4 4 4 5 5 5 5 5 6 6 6 6 6 7 8 8 8 9 9 9 10 11
6 5 5 4 3 3 2 2 1 2 2 1 1 3 3 4 4 4 5 4 4 4 4 5 5 5 5 6 6 6 7 7 7 7 8 8 8 8 9 10 10 11 12
6 5 4 4 3 3 2 2 2 2 2 2 2 2 3 4 4 4 4 4 5 5 5 5 5 6 6 6 7 7 8 8 8 8 8 9 8 9 10 10 11 15 14
5 7 6 4 4 3 3 3 2 2 2 3 3 3 3 4 4 4 4 4 5 5 6 6 6 7 7 7 7 7 8 8 9 9 9 9 9 9 11 12 12 12 12
6 7 7 5 4 4 3 3 2 2 3 3 3 4 6 5 5 6 5 5 5 6 6 7 7 7 7 7 7 8 10 9 9 9 9 9 9 10 11 11 12 13 13
6 6 5 5 4 4 3 3 2 3 3 4 4 4 6 5 5 5 6 6 6 6 7 7 8 8 8 8 8 9 9 10 10 10 10 10 10 11 12 12 13 13 14
6 6 5 5 4 4 4 3 2 3 3 4 4 4 5 5 6 6 7 7 7 7 7 7 8 9 9 10 10 9 10 11 11 11 11 11 11 12 12 13 16 17 16
7 7 6 5 4 4 3 3 3 3 4 4 4 5 5 6 6 7 8 7 7 8 9 9 9 11 14 13 13 14 15 16 15 13 14 14 14 14 14 15 16 18 17
7 6 6 5 5 4 4 3 3 4 4 4 5 5 6 6 7 8 7 7 9 9 10 11 11 12 14 16 16 17 20 23 23 20 16 14 17 17 17 18 17 18 18
7 6 5 5 4 4 4 4 4 4 4 4 5 5 6 7 7 8 8 8 8 9 10 11 13 15 17 18 19 21 23 24 25 26 20 14 16 16 17 16 19 18 20
Wind_Direction
330 322 315 310 303 295 285 278 272 262 250 238 226 215 204 195 188 185 181 173 168 159 155 150 141 135 125 114 105 99 94 99 137 150 177 193 227 251 266 273 279 284 285
338 333 329 324 318 313 308 304 295 278 258 237 212 195 188 181 177 176 170 165 161 156 150 142 138 132 122 119 113 111 115 115 142 177 199 211 237 257 273 279 283 283 283
348 346 346 346 343 343 346 349 354 4 35 95 148 161 163 161 160 159 154 149 146 142 140 138 135 130 124 124 123 127 130 136 152 192 231 232 249 262 276 281 282 283 285
2 5 6 4 3 7 20 34 42 53 63 75 90 103 118 126 129 130 131 128 124 120 119 122 124 126 131 134 134 138 143 156 184 218 244 255 261 268 273 284 290 292 292
15 21 20 20 25 31 41 52 60 65 69 76 84 88 94 101 113 118 119 119 116 111 106 104 106 117 131 136 141 153 166 187 210 232 249 260 265 272 278 289 292 298 296
27 31 30 38 45 48 53 61 68 71 74 78 82 87 88 96 111 113 113 109 109 109 107 102 105 111 129 138 153 177 196 215 229 241 255 263 274 282 290 291 294 297 299
37 38 40 46 53 55 60 65 67 72 76 78 82 88 94 103 106 105 102 100 98 100 104 110 115 122 120 131 160 212 232 247 253 261 267 273 283 289 292 290 287 286 285
44 45 47 55 62 63 65 67 68 71 75 77 78 83 88 94 97 98 97 93 95 99 105 116 124 131 142 178 213 234 248 252 260 266 272 279 283 285 282 281 286 287 285
49 49 52 61 68 69 68 67 69 73 72 73 75 81 85 89 93 98 98 99 103 107 114 120 125 137 187 252 253 259 272 273 264 270 279 282 284 284 284 284 281 281 285
54 58 61 68 74 76 75 74 73 75 76 77 78 81 91 97 100 103 106 109 115 120 124 125 116 317 287 285 281 278 284 293 297 291 285 282 281 279 275 264 263 266 274
68 72 71 73 77 81 82 82 85 86 86 87 87 84 88 99 108 107 103 101 110 115 114 92 22 315 307 308 302 291 294 298 296 293 291 288 284 276 269 261 255 251 257
88 85 80 80 83 86 89 89 93 98 98 97 97 92 84 86 91 97 87 77 67 59 12 333 322 313 314 314 304 300 298 295 287 285 284 285 287 288 286 280 270 259 253
102 94 91 89 86 89 93 97 98 100 103 107 108 105 96 81 77 72 62 50 28 342 325 323 320 320 311 299 295 297 295 282 278 278 280 285 288 288 288 284 276 267 263
116 109 105 101 96 91 90 91 95 98 104 108 106 108 109 103 77 41 7 345 319 302 289 281 293 298 286 286 290 282 274 276 280 280 285 288 290 286 281 282 287 294 291
125 119 114 107 106 97 85 74 76 68 56 79 90 94 96 240 341 328 317 314 313 312 295 280 283 287 286 286 283 279 276 270 270 275 282 286 287 287 287 288 285 287 281
138 136 130 125 119 115 113 100 77 79 87 83 80 50 329 308 313 315 316 315 310 309 283 281 287 291 296 300 298 295 290 281 281 283 281 280 284 287 289 289 283 281 282
153 148 144 144 142 139 140 142 136 103 84 66 42 14 342 328 322 318 317 317 309 303 281 283 287 290 290 290 289 289 288 287 285 279 277 279 280 281 283 286 286 285 283
155 153 155 155 156 158 162 171 198 229 241 235 3 350 338 325 318 318 324 307 282 275 280 283 284 285 286 286 287 286 287 288 282 279 278 277 275 276 279 281 282 283 286
161 160 160 157 157 160 165 179 203 229 257 273 281 283 313 307 296 304 311 293 294 290 285 281 281 282 282 283 283 282 281 281 281 280 277 275 273 272 275 278 281 283 285
167 163 160 160 164 172 183 197 213 234 255 272 284 296 301 294 292 295 293 288 285 284 284 282 282 281 281 281 281 280 280 279 279 276 275 275 274 271 273 277 280 282 283
164 166 168 169 179 186 193 205 220 243 265 280 288 296 303 300 295 296 294 289 285 284 285 285 284 283 279 277 276 276 277 278 278 277 276 276 275 274 274 276 278 279 281
167 167 173 179 181 188 196 204 224 250 270 282 292 294 300 294 288 289 290 289 287 283 283 282 282 280 277 275 275 276 275 275 276 275 275 276 275 276 277 277 279 281 282
169 170 174 178 183 189 194 211 232 255 271 282 290 294 295 292 292 291 290 290 288 285 283 278 276 276 275 271 266 265 267 270 273 276 278 280 279 278 278 279 280 283 284
173 176 178 179 185 196 207 222 238 256 270 279 285 287 289 290 290 289 288 287 286 283 280 276 273 273 275 277 274 268 264 266 271 272 271 271 274 277 278 278 281 284 285
176 178 181 184 190 199 211 226 242 255 266 273 279 284 287 288 287 288 287 285 285 282 281 281 276 276 277 277 276 275 275 278 279 277 273 271 273 274 277 280 282 285 287
178 180 182 185 193 201 213 229 243 255 265 272 276 279 282 283 284 286 286 285 285 285 285 284 280 281 283 284 282 282 284 287 289 289 286 281 280 280 283 285 287 288 290
Height
1454 1452 1450 1449 1448 1447 1447 1447 1446 1446 1447 1447 1448 1448 1449 1450 1451 1452 1454 1456 1458 1459 1461 1464 1466 1468 1471 1473 1476 1478 1481 1483 1485 1486 1487 1487 1488 1487 1486 1484 1482 1480 1477
1451 1449 1447 1445 1444 1443 1442 1442 1441 1441 1441 1441 1442 1442 1443 1444 1445 1446 1447 1449 1451 1453 1455 1457 1460 1462 1465 1469 1471 1474 1476 1478 1480 1481 1481 1481 1481 1480 1479 1478 1475 1473 1471
1448 1446 1444 1442 1441 1439 1438 1437 1437 1436 1436 1437 1438 1438 1439 1439 1440 1441 1442 1443 1445 1448 1450 1453 1455 1459 1462 1465 1468 1470 1472 1473 1475 1475 1475 1475 1475 1474 1472 1470 1468 1466 1463
1446 1444 1442 1440 1438 1437 1435 1434 1433 1433 1433 1434 1434 1435 1435 1435 1436 1437 1438 1439 1441 1444 1447 1451 1455 1458 1461 1464 1465 1467 1468 1469 1469 1469 1469 1469 1469 1467 1465 1463 1461 1460 1457
1444 1442 1440 1438 1436 1434 1433 1432 1431 1431 1431 1432 1432 1432 1432 1433 1433 1434 1436 1438 1440 1443 1447 1451 1455 1457 1460 1461 1462 1462 1463 1464 1464 1464 1464 1464 1463 1462 1460 1458 1456 1453 1450
1444 1441 1439 1437 1435 1433 1432 1431 1430 1430 1430 1431 1431 1432 1432 1432 1433 1435 1437 1439 1442 1445 1448 1452 1454 1456 1457 1458 1458 1459 1460 1460 1460 1459 1459 1459 1458 1457 1455 1453 1451 1448 1445
1444 1442 1440 1438 1436 1434 1433 1432 1431 1431 1431 1432 1433 1433 1434 1435 1436 1438 1440 1442 1444 1447 1449 1451 1453 1454 1454 1455 1455 1456 1456 1455 1455 1455 1454 1453 1452 1451 1450 1448 1446 1444 1441
1445 1443 1441 1439 1438 1436 1435 1435 1434 1434 1435 1435 1436 1438 1438 1439 1440 1442 1444 1445 1446 1448 1449 1450 1451 1452 1452 1452 1452 1452 1452 1451 1450 1449 1449 1448 1447 1446 1444 1443 1441 1438 1435
1447 1445 1443 1442 1441 1440 1439 1439 1439 1439 1440 1440 1441 1442 1443 1443 1444 1445 1446 1447 1447 1448 1449 1450 1450 1450 1450 1449 1449 1448 1448 1447 1446 1444 1443 1442 1441 1440 1439 1437 1435 1432 1428
1450 1448 1447 1446 1445 1444 1444 1444 1444 1444 1445 1445 1446 1447 1447 1447 1447 1448 1448 1448 1448 1449 1449 1448 1448 1448 1447 1446 1446 1445 1444 1443 1442 1440 1439 1437 1436 1435 1433 1432 1430 1427 1424
1453 1452 1451 1450 1449 1449 1448 1448 1448 1449 1449 1450 1450 1450 1450 1450 1449 1449 1449 1449 1449 1448 1447 1447 1446 1445 1444 1443 1442 1442 1440 1439 1437 1436 1434 1433 1432 1430 1428 1427 1425 1422 1419
1456 1456 1455 1454 1453 1453 1453 1452 1452 1453 1453 1453 1453 1452 1452 1451 1451 1450 1450 1449 1448 1447 1446 1445 1444 1442 1441 1440 1439 1438 1436 1435 1434 1432 1431 1429 1428 1426 1424 1422 1420 1417 1414
1459 1459 1458 1457 1457 1456 1456 1456 1455 1455 1455 1454 1454 1454 1453 1452 1451 1450 1449 1448 1446 1445 1444 1442 1441 1439 1438 1437 1436 1434 1433 1432 1430 1429 1427 1425 1424 1422 1419 1417 1414 1411 1408
1461 1460 1460 1459 1459 1459 1458 1458 1457 1457 1456 1455 1455 1454 1453 1452 1450 1449 1447 1446 1444 1443 1441 1440 1438 1437 1435 1434 1432 1431 1429 1428 1427 1425 1423 1421 1419 1417 1414 1411 1408 1405 1400
1462 1461 1461 1461 1460 1460 1459 1459 1458 1457 1457 1456 1454 1453 1452 1450 1449 1447 1446 1444 1443 1441 1439 1437 1436 1434 1433 1431 1429 1428 1426 1425 1423 1421 1419 1417 1414 1412 1409 1406 1403 1399 1394
1462 1462 1462 1461 1461 1461 1460 1459 1458 1457 1455 1454 1453 1452 1450 1448 1446 1445 1443 1441 1440 1438 1437 1435 1433 1432 1430 1428 1427 1425 1424 1422 1420 1417 1415 1412 1409 1406 1403 1400 1397 1393 1388
1462 1462 1461 1461 1461 1460 1460 1459 1457 1456 1454 1452 1451 1449 1447 1446 1444 1442 1440 1439 1437 1435 1434 1432 1430 1429 1427 1425 1424 1422 1420 1418 1416 1413 1410 1408 1404 1401 1398 1394 1391 1387 1382
1460 1461 1461 1460 1460 1459 1459 1457 1456 1454 1453 1450 1449 1447 1445 1443 1441 1439 1437 1436 1434 1432 1430 1429 1427 1425 1424 1422 1420 1418 1416 1414 1411 1409 1406 1403 1399 1396 1392 1388 1385 1380 1375
1459 1459 1459 1459 1459 1458 1457 1455 1454 1452 1450 1448 1446 1444 1442 1440 1438 1436 1434 1432 1431 1429 1427 1425 1424 1422 1420 1418 1416 1414 1411 1409 1406 1404 1400 1397 1394 1390 1386 1382 1378 1374 1369
1457 1457 1458 1457 1457 1456 1454 1453 1451 1450 1448 1445 1443 1441 1439 1437 1435 1433 1431 1429 1427 1425 1423 1422 1420 1418 1416 1414 1411 1409 1406 1404 1401 1398 1395 1391 1388 1384 1380 1376 1372 1367 1362
1455 1455 1455 1455 1454 1453 1452 1451 1449 1447 1445 1443 1440 1438 1436 1434 1432 1430 1428 1426 1424 1422 1420 1418 1416 1414 1412 1409 1407 1404 1401 1398 1395 1392 1388 1385 1381 1377 1373 1369 1365 1360 1355
1452 1452 1453 1452 1452 1451 1449 1448 1446 1444 1442 1440 1437 1435 1433 1431 1428 1426 1424 1422 1420 1418 1416 1414 1411 1410 1407 1405 1402 1399 1395 1392 1389 1386 1382 1378 1374 1370 1366 1362 1357 1353 1348
1449 1450 1450 1450 1449 1448 1447 1445 1443 1441 1439 1437 1434 1432 1430 1428 1425 1423 1421 1419 1417 1415 1412 1410 1407 1405 1403 1400 1397 1393 1390 1387 1383 1380 1376 1372 1368 1363 1359 1354 1350 1345 1340
1446 1447 1447 1447 1446 1445 1444 1442 1440 1438 1436 1434 1431 1429 1427 1425 1422 1420 1418 1415 1413 1411 1408 1406 1403 1400 1398 1394 1391 1388 1384 1381 1377 1373 1370 1365 1360 1356 1352 1347 1343 1338 1333
1443 1443 1444 1443 1443 1442 1440 1439 1437 1435 1433 1431 1429 1426 1424 1422 1419 1417 1415 1412 1409 1407 1405 1402 1399 1396 1392 1389 1386 1382 1379 1375 1372 1368 1363 1359 1354 1349 1345 1340 1336 1331 1326
1439 1440 1440 1440 1439 1438 1437 1435 1433 1432 1430 1428 1426 1424 1421 1419 1416 1414 1411 1409 1406 1403 1400 1398 1394 1391 1387 1384 1380 1377 1373 1369 1366 1362 1358 1353 1348 1344 1339 1334 1329 1324 1318